,,Stat6,,Stat2,,Stat8,,Stat9,,Stat10,,Wind1,,Wind1,
time,status,PA1M_AVG,status,PR1M_SUM,status,RH1M_AVG,status,SR1M_AVG,status,TA1M_AVG,status,W1dAve1m,status,W1sAve1m,
2009-02-06, 00:00:00,VALID,918.669,VALID,0,VALID,100,VALID,-0.0169808,VALID,17.3932,VALID,140,VALID,0,
2009-02-06, 00:01:00,VALID,918.684,VALID,0,VALID,100,VALID,0,VALID,17.4032,VALID,140,VALID,0,
2009-02-06, 00:02:00,VALID,918.701,VALID,0,VALID,100,VALID,0.0169808,VALID,17.3967,VALID,137,VALID,0,
2009-02-06, 00:03:00,VALID,918.687,VALID,0,VALID,100,VALID,0,VALID,17.3904,VALID,137,VALID,0,
2009-02-06, 00:04:00,VALID,918.684,VALID,0,VALID,100,VALID,-0.0339617,VALID,17.3807,VALID,121,VALID,0,
2009-02-06, 00:05:00,VALID,918.668,VALID,0,VALID,100,VALID,-0.0339617,VALID,17.364,VALID,119,VALID,0,
2009-02-06, 00:06:00,VALID,918.678,VALID,0,VALID,100,VALID,0,VALID,17.3578,VALID,118,VALID,0.143674,
2009-02-06, 00:07:00,VALID,918.689,VALID,0,VALID,100,VALID,0,VALID,17.3575,VALID,122,VALID,0.282292,
2009-02-06, 00:08:00,VALID,918.701,VALID,0,VALID,100,VALID,-0.0169808,VALID,17.361,VALID,124,VALID,0.0186738,
2009-02-06, 00:09:00,VALID,918.701,VALID,0,VALID,100,VALID,-0.0169808,VALID,17.3253,VALID,127,VALID,0.323686,
2009-02-06, 00:10:00,VALID,918.719,VALID,0,VALID,100,VALID,-0.0169808,VALID,17.3191,VALID,127,VALID,0.224516,
2009-02-06, 00:11:00,VALID,918.738,VALID,0,VALID,100,VALID,-0.0169808,VALID,17.3223,VALID,128,VALID,0,
2009-02-06, 00:12:00,VALID,918.751,VALID,0,VALID,100,VALID,-0.0169808,VALID,17.3351,VALID,120,VALID,0.177604,
2009-02-06, 00:13:00,VALID,918.742,VALID,0,VALID,100,VALID,-0.0339617,VALID,17.3158,VALID,116,VALID,0.151972,
2009-02-06, 00:14:00,VALID,918.729,VALID,0,VALID,100,VALID,-0.0169808,VALID,17.3191,VALID,118,VALID,0.00228659,
2009-02-06, 00:15:00,VALID,918.71,VALID,0,VALID,100,VALID,-0.0169808,VALID,17.3221,VALID,125,VALID,0.160689,
2009-02-06, 00:16:00,VALID,918.705,VALID,0,VALID,100,VALID,-0.0169808,VALID,17.3258,VALID,132,VALID,0,
2009-02-06, 00:17:00,VALID,918.695,VALID,0,VALID,100,VALID,-0.0169808,VALID,17.3219,VALID,131,VALID,0.550595,
2009-02-06, 00:18:00,VALID,918.677,VALID,0,VALID,100,VALID,-0.0169808,VALID,17.3059,VALID,134,VALID,0.185902,
2009-02-06, 00:19:00,VALID,918.649,VALID,0,VALID,100,VALID,0,VALID,17.3029,VALID,133,VALID,0.191761,
2009-02-06, 00:20:00,VALID,918.631,VALID,0,VALID,100,VALID,-0.0509425,VALID,17.2964,VALID,123,VALID,0.0661458,
2009-02-06, 00:21:00,VALID,918.605,VALID,0,VALID,100,VALID,0,VALID,17.2929,VALID,120,VALID,0.185454,
2009-02-06, 00:22:00,VALID,918.6,VALID,0,VALID,100,VALID,-0.0509425,VALID,17.3096,VALID,123,VALID,0.0801711,
2009-02-06, 00:23:00,VALID,918.588,VALID,0,VALID,100,VALID,-0.0509425,VALID,17.3033,VALID,123,VALID,0.216463,
2009-02-06, 00:24:00,VALID,918.566,VALID,0,VALID,100,VALID,-0.0509425,VALID,17.2899,VALID,124,VALID,0.355168,
2009-02-06, 00:25:00,VALID,918.555,VALID,0,VALID,100,VALID,-0.0849042,VALID,17.2996,VALID,126,VALID,0.141026,
2009-02-06, 00:26:00,VALID,918.538,VALID,0,VALID,100,VALID,0,VALID,17.3228,VALID,124,VALID,0.0243676,
2009-02-06, 00:27:00,VALID,918.527,VALID,0,VALID,100,VALID,-0.0339617,VALID,17.329,VALID,121,VALID,0.0299479,
2009-02-06, 00:28:00,VALID,918.523,VALID,0,VALID,100,VALID,0,VALID,17.3221,VALID,125,VALID,0.00449219,
2009-02-06, 00:29:00,VALID,918.499,VALID,0,VALID,100,VALID,0,VALID,17.3543,VALID,121,VALID,0.585392,
2009-02-06, 00:30:00,VALID,918.48,VALID,0,VALID,100,VALID,0,VALID,17.3677,VALID,124,VALID,0.457986,
2009-02-06, 00:31:00,VALID,918.458,VALID,0,VALID,100,VALID,-0.0339617,VALID,17.3839,VALID,126,VALID,0.501524,
2009-02-06, 00:32:00,VALID,918.451,VALID,0,VALID,99.9964,VALID,0,VALID,17.3902,VALID,118,VALID,0.0988948,
2009-02-06, 00:33:00,VALID,918.446,VALID,0,VALID,99.999,VALID,-0.0169808,VALID,17.3997,VALID,132,VALID,0.301153,
2009-02-06, 00:34:00,VALID,918.418,VALID,0,VALID,99.9591,VALID,-0.0169808,VALID,17.4194,VALID,129,VALID,0.0360705,
2009-02-06, 00:35:00,VALID,918.404,VALID,0,VALID,99.7981,VALID,0,VALID,17.4259,VALID,131,VALID,0.0877976,
2009-02-06, 00:36:00,VALID,918.386,VALID,0,VALID,99.6633,VALID,0,VALID,17.4261,VALID,121,VALID,0.0796131,
2009-02-06, 00:37:00,VALID,918.365,VALID,0,VALID,99.5819,VALID,-0.0339617,VALID,17.4096,VALID,130,VALID,0,
2009-02-06, 00:38:00,VALID,918.343,VALID,0,VALID,99.5794,VALID,-0.0339617,VALID,17.4131,VALID,123,VALID,0.0539931,
2009-02-06, 00:39:00,VALID,918.32,VALID,0,VALID,99.5603,VALID,0,VALID,17.4194,VALID,119,VALID,0.0557528,
2009-02-06, 00:40:00,VALID,918.316,VALID,0,VALID,99.4891,VALID,0,VALID,17.3997,VALID,113,VALID,0.279018,
2009-02-06, 00:41:00,VALID,918.298,VALID,0,VALID,99.648,VALID,-0.0169808,VALID,17.3997,VALID,124,VALID,0.490282,
2009-02-06, 00:42:00,VALID,918.28,VALID,0,VALID,99.6671,VALID,-0.0339617,VALID,17.4161,VALID,124,VALID,0.00285823,
2009-02-06, 00:43:00,VALID,918.263,VALID,0,VALID,99.6302,VALID,-0.0169808,VALID,17.4261,VALID,123,VALID,0,
2009-02-06, 00:44:00,VALID,918.243,VALID,0,VALID,99.7154,VALID,0,VALID,17.4356,VALID,118,VALID,0,
2009-02-06, 00:45:00,VALID,918.225,VALID,0,VALID,99.6671,VALID,-0.0169808,VALID,17.4455,VALID,128,VALID,0,
2009-02-06, 00:46:00,VALID,918.196,VALID,0,VALID,99.5933,VALID,0,VALID,17.4289,VALID,123,VALID,0,
2009-02-06, 00:47:00,VALID,918.196,VALID,0,VALID,99.5501,VALID,-0.0169808,VALID,17.4129,VALID,122,VALID,0,
2009-02-06, 00:48:00,VALID,918.172,VALID,0,VALID,99.6849,VALID,0,VALID,17.39,VALID,122,VALID,0,
2009-02-06, 00:49:00,VALID,918.181,VALID,0,VALID,99.9575,VALID,-0.0339617,VALID,17.4191,VALID,122,VALID,0,
2009-02-06, 00:50:00,VALID,918.186,VALID,0,VALID,100,VALID,-0.0339617,VALID,17.4483,VALID,123,VALID,0,
2009-02-06, 00:51:00,VALID,918.176,VALID,0,VALID,99.987,VALID,-0.0509425,VALID,17.4354,VALID,122,VALID,0,
2009-02-06, 00:52:00,VALID,918.154,VALID,0,VALID,99.9977,VALID,-0.0679233,VALID,17.4256,VALID,109,VALID,0.0390625,
2009-02-06, 00:53:00,VALID,918.126,VALID,0,VALID,99.9407,VALID,-0.0339617,VALID,17.4129,VALID,107,VALID,0,
2009-02-06, 00:54:00,VALID,918.108,VALID,0,VALID,99.6735,VALID,-0.0849042,VALID,17.2962,VALID,99,VALID,0.11772,
2009-02-06, 00:55:00,VALID,918.113,VALID,0,VALID,99.9725,VALID,0,VALID,17.254,VALID,98,VALID,0,
2009-02-06, 00:56:00,VALID,918.123,VALID,0,VALID,100,VALID,0,VALID,17.3029,VALID,120,VALID,0,
2009-02-06, 00:57:00,VALID,918.121,VALID,0,VALID,100,VALID,-0.0339617,VALID,17.3253,VALID,126,VALID,0,
2009-02-06, 00:58:00,VALID,918.089,VALID,0,VALID,100,VALID,-0.0339617,VALID,17.3645,VALID,123,VALID,0.345022,
2009-02-06, 00:59:00,VALID,918.029,VALID,0,VALID,100,VALID,0,VALID,17.3902,VALID,110,VALID,0,
2009-02-06, 01:00:00,VALID,917.967,VALID,0,VALID,100,VALID,-0.0169808,VALID,17.4029,VALID,104,VALID,0,
2009-02-06, 01:01:00,VALID,917.924,VALID,0,VALID,100,VALID,-0.0509425,VALID,17.2897,VALID,98,VALID,0,
2009-02-06, 01:02:00,VALID,917.917,VALID,0,VALID,100,VALID,-0.0509425,VALID,17.2475,VALID,97,VALID,0,
2009-02-06, 01:03:00,VALID,917.902,VALID,0,VALID,100,VALID,-0.0169808,VALID,17.2795,VALID,97,VALID,0.154615,
2009-02-06, 01:04:00,VALID,917.887,VALID,0,VALID,100,VALID,-0.0339617,VALID,17.3156,VALID,99,VALID,0,
2009-02-06, 01:05:00,VALID,917.873,VALID,0,VALID,100,VALID,-0.0509425,VALID,17.2934,VALID,97,VALID,0,
2009-02-06, 01:06:00,VALID,917.853,VALID,0,VALID,100,VALID,-0.0169808,VALID,17.1831,VALID,95,VALID,0,
2009-02-06, 01:07:00,VALID,917.861,VALID,0,VALID,100,VALID,-0.0339617,VALID,17.1436,VALID,95,VALID,0,
2009-02-06, 01:08:00,VALID,917.863,VALID,0,VALID,100,VALID,-0.0339617,VALID,17.2153,VALID,95,VALID,0,
2009-02-06, 01:09:00,VALID,917.858,VALID,0,VALID,100,VALID,-0.0339617,VALID,17.2119,VALID,95,VALID,0,
2009-02-06, 01:10:00,VALID,917.837,VALID,0,VALID,99.9964,VALID,-0.0339617,VALID,17.0498,VALID,95,VALID,0,
2009-02-06, 01:11:00,VALID,917.821,VALID,0,VALID,99.6569,VALID,-0.0849042,VALID,16.8526,VALID,95,VALID,0,
2009-02-06, 01:12:00,VALID,917.797,VALID,0,VALID,99.8914,VALID,-0.0849042,VALID,16.7128,VALID,95,VALID,0,
2009-02-06, 01:13:00,VALID,917.773,VALID,0,VALID,100,VALID,-0.0509425,VALID,16.7744,VALID,95,VALID,0,
2009-02-06, 01:14:00,VALID,917.757,VALID,0,VALID,100,VALID,-0.0339617,VALID,16.9596,VALID,95,VALID,0,
2009-02-06, 01:15:00,VALID,917.728,VALID,0,VALID,100,VALID,-0.0169808,VALID,17.0625,VALID,95,VALID,0.170387,
2009-02-06, 01:16:00,VALID,917.722,VALID,0,VALID,100,VALID,-0.0169808,VALID,17.1049,VALID,115,VALID,0,
2009-02-06, 01:17:00,VALID,917.717,VALID,0,VALID,100,VALID,-0.0509425,VALID,17.0463,VALID,128,VALID,0,
2009-02-06, 01:18:00,VALID,917.717,VALID,0,VALID,100,VALID,0,VALID,17.0236,VALID,136,VALID,0,
2009-02-06, 01:19:00,VALID,917.707,VALID,0,VALID,100,VALID,-0.0339617,VALID,16.9622,VALID,153,VALID,0,
2009-02-06, 01:20:00,VALID,917.685,VALID,0,VALID,100,VALID,0,VALID,16.8976,VALID,154,VALID,0,
2009-02-06, 01:21:00,VALID,917.669,VALID,0,VALID,100,VALID,-0.0339617,VALID,16.8425,VALID,154,VALID,0,
2009-02-06, 01:22:00,VALID,917.67,VALID,0,VALID,100,VALID,-0.0169808,VALID,16.8455,VALID,154,VALID,0,
2009-02-06, 01:23:00,VALID,917.661,VALID,0,VALID,100,VALID,-0.0169808,VALID,16.8453,VALID,154,VALID,0,
2009-02-06, 01:24:00,VALID,917.645,VALID,0,VALID,100,VALID,-0.0169808,VALID,16.8317,VALID,154,VALID,0,
2009-02-06, 01:25:00,VALID,917.637,VALID,0,VALID,100,VALID,-0.0169808,VALID,16.8777,VALID,149,VALID,0,
2009-02-06, 01:26:00,VALID,917.614,VALID,0,VALID,100,VALID,-0.0679233,VALID,16.9685,VALID,147,VALID,0,
2009-02-06, 01:27:00,VALID,917.609,VALID,0,VALID,100,VALID,-0.0339617,VALID,17.056,VALID,142,VALID,0,
2009-02-06, 01:28:00,VALID,917.582,VALID,0,VALID,100,VALID,-0.0169808,VALID,17.0755,VALID,142,VALID,0,
2009-02-06, 01:29:00,VALID,917.551,VALID,0,VALID,100,VALID,-0.0509425,VALID,17.1306,VALID,142,VALID,0,
2009-02-06, 01:30:00,VALID,917.501,VALID,0,VALID,100,VALID,-0.0169808,VALID,17.1792,VALID,125,VALID,0,
2009-02-06, 01:31:00,VALID,917.446,VALID,0,VALID,100,VALID,-0.0679233,VALID,17.2054,VALID,119,VALID,0,
2009-02-06, 01:32:00,VALID,917.408,VALID,0,VALID,100,VALID,-0.0679233,VALID,17.2084,VALID,117,VALID,0,
2009-02-06, 01:33:00,VALID,917.398,VALID,0,VALID,100,VALID,-0.0339617,VALID,17.2343,VALID,115,VALID,0,
2009-02-06, 01:34:00,VALID,917.392,VALID,0,VALID,100,VALID,-0.0169808,VALID,17.2605,VALID,116,VALID,0,
2009-02-06, 01:35:00,VALID,917.395,VALID,0,VALID,100,VALID,-0.0679233,VALID,17.2668,VALID,120,VALID,0.627096,
2009-02-06, 01:36:00,VALID,917.405,VALID,0,VALID,100,VALID,-0.0679233,VALID,17.2473,VALID,128,VALID,0.00117188,
2009-02-06, 01:37:00,VALID,917.403,VALID,0,VALID,100,VALID,-0.0339617,VALID,17.2248,VALID,137,VALID,0,
2009-02-06, 01:38:00,VALID,917.389,VALID,0,VALID,100,VALID,-0.0169808,VALID,17.2181,VALID,136,VALID,0,
2009-02-06, 01:39:00,VALID,917.373,VALID,0,VALID,100,VALID,0,VALID,17.1857,VALID,135,VALID,0,
2009-02-06, 01:40:00,VALID,917.38,VALID,0,VALID,100,VALID,-0.0169808,VALID,17.1077,VALID,136,VALID,0,
2009-02-06, 01:41:00,VALID,917.371,VALID,0,VALID,100,VALID,-0.0169808,VALID,17.0882,VALID,143,VALID,0,
2009-02-06, 01:42:00,VALID,917.369,VALID,0,VALID,100,VALID,0,VALID,17.082,VALID,146,VALID,0,
2009-02-06, 01:43:00,VALID,917.337,VALID,0,VALID,100,VALID,-0.0509425,VALID,17.069,VALID,148,VALID,0,
2009-02-06, 01:44:00,VALID,917.308,VALID,0,VALID,100,VALID,-0.0679233,VALID,17.0569,VALID,144,VALID,0,
2009-02-06, 01:45:00,VALID,917.295,VALID,0,VALID,100,VALID,-0.0849042,VALID,17.0562,VALID,136,VALID,0,
2009-02-06, 01:46:00,VALID,917.262,VALID,0,VALID,100,VALID,-0.0339617,VALID,17.0884,VALID,134,VALID,0,
2009-02-06, 01:47:00,VALID,917.249,VALID,0,VALID,100,VALID,-0.0849042,VALID,17.1602,VALID,131,VALID,0,
2009-02-06, 01:48:00,VALID,917.229,VALID,0,VALID,100,VALID,-0.0509425,VALID,17.1762,VALID,129,VALID,0,
2009-02-06, 01:49:00,VALID,917.215,VALID,0,VALID,100,VALID,-0.0849042,VALID,17.1928,VALID,129,VALID,0,
2009-02-06, 01:50:00,VALID,917.218,VALID,0,VALID,100,VALID,-0.0509425,VALID,17.144,VALID,138,VALID,0,
2009-02-06, 01:51:00,VALID,917.229,VALID,0,VALID,100,VALID,-0.0339617,VALID,17.0956,VALID,152,VALID,0,
2009-02-06, 01:52:00,VALID,917.238,VALID,0,VALID,100,VALID,-0.101885,VALID,17.069,VALID,156,VALID,0,
2009-02-06, 01:53:00,VALID,917.259,VALID,0,VALID,100,VALID,-0.0679233,VALID,17.1016,VALID,169,VALID,0,
2009-02-06, 01:54:00,VALID,917.266,VALID,0,VALID,100,VALID,-0.0849042,VALID,17.0593,VALID,170,VALID,0.0740234,
2009-02-06, 01:55:00,VALID,917.231,VALID,0,VALID,100,VALID,-0.0679233,VALID,17.0629,VALID,161,VALID,0,
2009-02-06, 01:56:00,VALID,917.182,VALID,0,VALID,100,VALID,-0.0679233,VALID,17.0433,VALID,141,VALID,0,
2009-02-06, 01:57:00,VALID,917.134,VALID,0,VALID,100,VALID,-0.101885,VALID,16.962,VALID,142,VALID,0,
2009-02-06, 01:58:00,VALID,917.138,VALID,0,VALID,100,VALID,-0.0849042,VALID,16.949,VALID,140,VALID,0,
2009-02-06, 01:59:00,VALID,917.158,VALID,0,VALID,100,VALID,-0.0339617,VALID,16.9555,VALID,141,VALID,0,
2009-02-06, 02:00:00,VALID,917.158,VALID,0,VALID,100,VALID,-0.0339617,VALID,16.9363,VALID,157,VALID,0,
2009-02-06, 02:01:00,VALID,917.134,VALID,0,VALID,100,VALID,-0.0849042,VALID,16.9231,VALID,162,VALID,0,
2009-02-06, 02:02:00,VALID,917.118,VALID,0,VALID,100,VALID,-0.0509425,VALID,16.9037,VALID,158,VALID,0.144631,
2009-02-06, 02:03:00,VALID,917.092,VALID,0,VALID,100,VALID,-0.0509425,VALID,16.871,VALID,155,VALID,0.149368,
2009-02-06, 02:04:00,VALID,917.063,VALID,0,VALID,100,VALID,-0.0679233,VALID,16.8648,VALID,154,VALID,0.00213068,
2009-02-06, 02:05:00,VALID,917.04,VALID,0,VALID,100,VALID,-0.0679233,VALID,16.8453,VALID,147,VALID,0,
2009-02-06, 02:06:00,VALID,917.039,VALID,0,VALID,100,VALID,0,VALID,16.8615,VALID,143,VALID,0,
2009-02-06, 02:07:00,VALID,917.047,VALID,0,VALID,100,VALID,-0.0339617,VALID,16.8712,VALID,149,VALID,0,
2009-02-06, 02:08:00,VALID,917.075,VALID,0,VALID,100,VALID,-0.0679233,VALID,16.8972,VALID,156,VALID,0,
2009-02-06, 02:09:00,VALID,917.07,VALID,0,VALID,100,VALID,-0.0339617,VALID,16.9361,VALID,147,VALID,0.11441,
2009-02-06, 02:10:00,VALID,917.05,VALID,0,VALID,100,VALID,-0.0169808,VALID,16.949,VALID,138,VALID,0.087843,
2009-02-06, 02:11:00,VALID,917.038,VALID,0,VALID,100,VALID,-0.0509425,VALID,17.0106,VALID,129,VALID,0.135975,
2009-02-06, 02:12:00,VALID,917.052,VALID,0,VALID,100,VALID,-0.0509425,VALID,17.0431,VALID,124,VALID,0.358865,
2009-02-06, 02:13:00,VALID,917.076,VALID,0,VALID,100,VALID,-0.0169808,VALID,17.0625,VALID,125,VALID,0,
2009-02-06, 02:14:00,VALID,917.078,VALID,0,VALID,100,VALID,-0.0849042,VALID,17.0949,VALID,134,VALID,0,
2009-02-06, 02:15:00,VALID,917.05,VALID,0,VALID,100,VALID,-0.0509425,VALID,17.082,VALID,141,VALID,0.0422585,
2009-02-06, 02:16:00,VALID,916.996,VALID,0,VALID,100,VALID,-0.0339617,VALID,17.0463,VALID,146,VALID,0.00093006,
2009-02-06, 02:17:00,VALID,916.939,VALID,0,VALID,100,VALID,-0.0679233,VALID,17.0301,VALID,143,VALID,0,
2009-02-06, 02:18:00,VALID,916.928,VALID,0,VALID,100,VALID,-0.0509425,VALID,17.0658,VALID,129,VALID,0.00118886,
2009-02-06, 02:19:00,VALID,916.957,VALID,0,VALID,100,VALID,0,VALID,17.0461,VALID,138,VALID,0,
2009-02-06, 02:20:00,VALID,916.995,VALID,0,VALID,100,VALID,-0.0169808,VALID,17.0398,VALID,160,VALID,0.225472,
2009-02-06, 02:21:00,VALID,917.029,VALID,0,VALID,100,VALID,-0.0509425,VALID,17.0947,VALID,163,VALID,0.0349702,
2009-02-06, 02:22:00,VALID,917.035,VALID,0,VALID,100,VALID,-0.0339617,VALID,17.1533,VALID,164,VALID,0.090554,
2009-02-06, 02:23:00,VALID,917.026,VALID,0,VALID,100,VALID,0,VALID,17.195,VALID,160,VALID,0,
2009-02-06, 02:24:00,VALID,917.004,VALID,0,VALID,100,VALID,0,VALID,17.2436,VALID,154,VALID,0,
2009-02-06, 02:25:00,VALID,916.962,VALID,0,VALID,100,VALID,0,VALID,17.2603,VALID,148,VALID,0,
2009-02-06, 02:26:00,VALID,916.951,VALID,0,VALID,100,VALID,0,VALID,17.2276,VALID,132,VALID,0,
2009-02-06, 02:27:00,VALID,916.954,VALID,0,VALID,100,VALID,-0.0339617,VALID,17.2019,VALID,138,VALID,0,
2009-02-06, 02:28:00,VALID,916.974,VALID,0,VALID,100,VALID,-0.0169808,VALID,17.2019,VALID,144,VALID,0,
2009-02-06, 02:29:00,VALID,916.959,VALID,0,VALID,100,VALID,0,VALID,17.1922,VALID,149,VALID,0,
2009-02-06, 02:30:00,VALID,916.962,VALID,0,VALID,100,VALID,0,VALID,17.192,VALID,142,VALID,0,
2009-02-06, 02:31:00,VALID,916.948,VALID,0,VALID,100,VALID,-0.0169808,VALID,17.1855,VALID,145,VALID,0,
2009-02-06, 02:32:00,VALID,916.923,VALID,0,VALID,100,VALID,-0.0339617,VALID,17.1887,VALID,147,VALID,0,
2009-02-06, 02:33:00,VALID,916.915,VALID,0,VALID,100,VALID,-0.0169808,VALID,17.1825,VALID,146,VALID,0,
2009-02-06, 02:34:00,VALID,916.937,VALID,0,VALID,100,VALID,0,VALID,17.1792,VALID,146,VALID,0,
2009-02-06, 02:35:00,VALID,916.955,VALID,0,VALID,100,VALID,-0.0339617,VALID,17.1695,VALID,146,VALID,0,
2009-02-06, 02:36:00,VALID,916.963,VALID,0,VALID,100,VALID,-0.0169808,VALID,17.163,VALID,152,VALID,0,
2009-02-06, 02:37:00,VALID,916.952,VALID,0,VALID,100,VALID,-0.0169808,VALID,17.1366,VALID,136,VALID,0.0759766,
2009-02-06, 02:38:00,VALID,916.934,VALID,0,VALID,100,VALID,-0.0509425,VALID,17.0913,VALID,134,VALID,0.321766,
2009-02-06, 02:39:00,VALID,916.925,VALID,0,VALID,100,VALID,0,VALID,17.0431,VALID,136,VALID,0,
2009-02-06, 02:40:00,VALID,916.926,VALID,0,VALID,100,VALID,-0.0339617,VALID,17.0042,VALID,146,VALID,0,
2009-02-06, 02:41:00,VALID,916.92,VALID,0,VALID,100,VALID,0,VALID,16.991,VALID,152,VALID,0,
2009-02-06, 02:42:00,VALID,916.908,VALID,0,VALID,100,VALID,-0.0169808,VALID,16.9776,VALID,146,VALID,0,
2009-02-06, 02:43:00,VALID,916.893,VALID,0,VALID,100,VALID,0,VALID,16.9748,VALID,145,VALID,0,
2009-02-06, 02:44:00,VALID,916.908,VALID,0,VALID,100,VALID,0.0169808,VALID,16.965,VALID,148,VALID,0,
2009-02-06, 02:45:00,VALID,916.916,VALID,0,VALID,100,VALID,-0.0169808,VALID,16.9458,VALID,145,VALID,0,
2009-02-06, 02:46:00,VALID,916.919,VALID,0,VALID,100,VALID,0,VALID,16.9095,VALID,150,VALID,0.319712,
2009-02-06, 02:47:00,VALID,916.916,VALID,0,VALID,100,VALID,-0.0169808,VALID,16.8777,VALID,147,VALID,0.111421,
2009-02-06, 02:48:00,VALID,916.923,VALID,0,VALID,100,VALID,-0.0169808,VALID,16.8287,VALID,154,VALID,0,
2009-02-06, 02:49:00,VALID,916.915,VALID,0,VALID,100,VALID,-0.0169808,VALID,16.8029,VALID,150,VALID,0,
2009-02-06, 02:50:00,VALID,916.89,VALID,0,VALID,100,VALID,-0.0169808,VALID,16.764,VALID,142,VALID,0.065952,
2009-02-06, 02:51:00,VALID,916.868,VALID,0,VALID,100,VALID,0,VALID,16.7381,VALID,132,VALID,0.161133,
2009-02-06, 02:52:00,VALID,916.822,VALID,0,VALID,100,VALID,-0.0169808,VALID,16.6664,VALID,122,VALID,0.153906,
2009-02-06, 02:53:00,VALID,916.815,VALID,0,VALID,100,VALID,-0.0849042,VALID,16.6356,VALID,120,VALID,0.171684,
2009-02-06, 02:54:00,VALID,916.784,VALID,0,VALID,100,VALID,-0.101885,VALID,16.6259,VALID,112,VALID,0.482143,
2009-02-06, 02:55:00,VALID,916.77,VALID,0,VALID,100,VALID,-0.118866,VALID,16.574,VALID,128,VALID,0.12168,
2009-02-06, 02:56:00,VALID,916.776,VALID,0,VALID,100,VALID,-0.118866,VALID,16.5838,VALID,140,VALID,0.0746528,
2009-02-06, 02:57:00,VALID,916.766,VALID,0,VALID,100,VALID,-0.101885,VALID,16.5996,VALID,120,VALID,0.282493,
2009-02-06, 02:58:00,VALID,916.766,VALID,0,VALID,100,VALID,-0.0849042,VALID,16.5933,VALID,126,VALID,0.00508721,
2009-02-06, 02:59:00,VALID,916.775,VALID,0,VALID,100,VALID,-0.135847,VALID,16.6032,VALID,132,VALID,0.107813,
2009-02-06, 03:00:00,VALID,916.768,VALID,0,VALID,100,VALID,-0.118866,VALID,16.5965,VALID,127,VALID,0.000190549,
2009-02-06, 03:01:00,VALID,916.759,VALID,0,VALID,100,VALID,-0.101885,VALID,16.613,VALID,124,VALID,0.272222,
2009-02-06, 03:02:00,VALID,916.724,VALID,0,VALID,100,VALID,-0.101885,VALID,16.5898,VALID,113,VALID,0.00130208,
2009-02-06, 03:03:00,VALID,916.711,VALID,0,VALID,100,VALID,-0.101885,VALID,16.5775,VALID,118,VALID,0.0710392,
2009-02-06, 03:04:00,VALID,916.695,VALID,0,VALID,100,VALID,-0.101885,VALID,16.5583,VALID,114,VALID,0.0173399,
2009-02-06, 03:05:00,VALID,916.672,VALID,0,VALID,100,VALID,-0.101885,VALID,16.5384,VALID,116,VALID,0.0539435,
2009-02-06, 03:06:00,VALID,916.665,VALID,0,VALID,100,VALID,-0.101885,VALID,16.5349,VALID,122,VALID,0.00111607,
2009-02-06, 03:07:00,VALID,916.662,VALID,0,VALID,100,VALID,-0.0849042,VALID,16.5218,VALID,116,VALID,0,
2009-02-06, 03:08:00,VALID,916.667,VALID,0,VALID,100,VALID,-0.0169808,VALID,16.5177,VALID,117,VALID,0,
2009-02-06, 03:09:00,VALID,916.664,VALID,0,VALID,100,VALID,0,VALID,16.4982,VALID,108,VALID,0,
2009-02-06, 03:10:00,VALID,916.654,VALID,0,VALID,100,VALID,-0.0339617,VALID,16.466,VALID,90,VALID,0,
2009-02-06, 03:11:00,VALID,916.644,VALID,0,VALID,100,VALID,-0.0169808,VALID,16.4271,VALID,92,VALID,0,
2009-02-06, 03:12:00,VALID,916.609,VALID,0,VALID,100,VALID,0,VALID,16.4036,VALID,85,VALID,0,
2009-02-06, 03:13:00,VALID,916.572,VALID,0,VALID,100,VALID,0,VALID,16.3815,VALID,78,VALID,0,
2009-02-06, 03:14:00,VALID,916.555,VALID,0,VALID,100,VALID,0,VALID,16.3457,VALID,76,VALID,0,
2009-02-06, 03:15:00,VALID,916.557,VALID,0,VALID,100,VALID,-0.0169808,VALID,16.3427,VALID,83,VALID,0,
2009-02-06, 03:16:00,VALID,916.567,VALID,0,VALID,100,VALID,-0.0169808,VALID,16.3331,VALID,89,VALID,0,
2009-02-06, 03:17:00,VALID,916.555,VALID,0,VALID,100,VALID,0,VALID,16.3262,VALID,106,VALID,0,
2009-02-06, 03:18:00,VALID,916.562,VALID,0,VALID,100,VALID,0.0169808,VALID,16.4138,VALID,121,VALID,0,
2009-02-06, 03:19:00,VALID,916.546,VALID,0,VALID,100,VALID,0.0679233,VALID,16.5106,VALID,133,VALID,0,
2009-02-06, 03:20:00,VALID,916.556,VALID,0,VALID,100,VALID,0,VALID,16.5696,VALID,132,VALID,0,
2009-02-06, 03:21:00,VALID,916.573,VALID,0,VALID,100,VALID,0.0169808,VALID,16.5566,VALID,131,VALID,0,
2009-02-06, 03:22:00,VALID,916.587,VALID,0,VALID,100,VALID,0.0169808,VALID,16.5268,VALID,131,VALID,0,
2009-02-06, 03:23:00,VALID,916.617,VALID,0,VALID,100,VALID,0,VALID,16.5335,VALID,136,VALID,0,
2009-02-06, 03:24:00,VALID,916.62,VALID,0,VALID,100,VALID,0.0169808,VALID,16.5622,VALID,142,VALID,0,
2009-02-06, 03:25:00,VALID,916.627,VALID,0,VALID,100,VALID,-0.0169808,VALID,16.5981,VALID,151,VALID,0.078497,
2009-02-06, 03:26:00,VALID,916.608,VALID,0,VALID,100,VALID,-0.0169808,VALID,16.6279,VALID,149,VALID,0.501674,
2009-02-06, 03:27:00,VALID,916.63,VALID,0,VALID,100,VALID,0,VALID,16.6636,VALID,148,VALID,0.185138,
2009-02-06, 03:28:00,VALID,916.622,VALID,0,VALID,100,VALID,0,VALID,16.6633,VALID,146,VALID,0.252858,
2009-02-06, 03:29:00,VALID,916.607,VALID,0,VALID,100,VALID,-0.0169808,VALID,16.6832,VALID,147,VALID,0.529721,
2009-02-06, 03:30:00,VALID,916.602,VALID,0,VALID,100,VALID,-0.0169808,VALID,16.6832,VALID,143,VALID,0.00816761,
2009-02-06, 03:31:00,VALID,916.585,VALID,0,VALID,100,VALID,-0.0339617,VALID,16.6698,VALID,133,VALID,0.0012429,
2009-02-06, 03:32:00,VALID,916.559,VALID,0,VALID,100,VALID,-0.0169808,VALID,16.6342,VALID,135,VALID,0.00111607,
2009-02-06, 03:33:00,VALID,916.557,VALID,0,VALID,100,VALID,0,VALID,16.6344,VALID,137,VALID,0,
2009-02-06, 03:34:00,VALID,916.551,VALID,0,VALID,100,VALID,-0.0169808,VALID,16.6149,VALID,137,VALID,0,
2009-02-06, 03:35:00,VALID,916.552,VALID,0,VALID,100,VALID,0,VALID,16.5955,VALID,144,VALID,0,
2009-02-06, 03:36:00,VALID,916.555,VALID,0,VALID,100,VALID,0,VALID,16.5825,VALID,139,VALID,0,
2009-02-06, 03:37:00,VALID,916.526,VALID,0,VALID,100,VALID,0,VALID,16.5758,VALID,136,VALID,0,
2009-02-06, 03:38:00,VALID,916.519,VALID,0,VALID,100,VALID,-0.101885,VALID,16.5574,VALID,134,VALID,0,
2009-02-06, 03:39:00,VALID,916.509,VALID,0,VALID,100,VALID,-0.0849042,VALID,16.5609,VALID,134,VALID,0,
2009-02-06, 03:40:00,VALID,916.521,VALID,0,VALID,100,VALID,-0.118866,VALID,16.5607,VALID,134,VALID,0,
2009-02-06, 03:41:00,VALID,916.518,VALID,0,VALID,100,VALID,-0.101885,VALID,16.5248,VALID,136,VALID,0,
2009-02-06, 03:42:00,VALID,916.518,VALID,0,VALID,100,VALID,-0.118866,VALID,16.5183,VALID,136,VALID,0,
2009-02-06, 03:43:00,VALID,916.514,VALID,0,VALID,100,VALID,-0.101885,VALID,16.4956,VALID,137,VALID,0,
2009-02-06, 03:44:00,VALID,916.508,VALID,0,VALID,100,VALID,-0.101885,VALID,16.4734,VALID,138,VALID,0,
2009-02-06, 03:45:00,VALID,916.507,VALID,0,VALID,100,VALID,-0.118866,VALID,16.4573,VALID,137,VALID,0,
2009-02-06, 03:46:00,VALID,916.495,VALID,0,VALID,100,VALID,-0.118866,VALID,16.4567,VALID,137,VALID,0,